This is the latest recevied weather packets stored in our database for station/object N3EYQ. If no packets are shown the sender has not sent any weather packets the latest 10 day(s).
| Time | Temp. | Humidity | Pressure | Rain* | Wind** | Luminosity | Snow |
|---|---|---|---|---|---|---|---|
| 1777617564 | 4.44° C | 77% | 1011.3 hPa | 0 mm | - | - | - |
| 1777616964 | 5° C | 76% | 1011.3 hPa | 0 mm | - | - | - |
| 1777616364 | 5° C | 76% | 1011.3 hPa | 0 mm | - | - | - |
| 1777615763 | 5° C | 76% | 1011.6 hPa | 0 mm | - | - | - |
| 1777615163 | 5.56° C | 75% | 1011.6 hPa | 0 mm | - | - | - |
| 1777613363 | 6.11° C | 72% | 1011.3 hPa | 0 mm | - | - | - |
| 1777612764 | 6.11° C | 71% | 1011.3 hPa | 0 mm | - | - | - |
| 1777612164 | 6.67° C | 71% | 1011.3 hPa | 0 mm | - | - | - |
| 1777611563 | 7.22° C | 69% | 1011.3 hPa | 0 mm | - | - | - |
| 1777610963 | 7.78° C | 68% | 1011.3 hPa | 0 mm | - | - | - |
| 1777610362 | 7.78° C | 67% | 1011.6 hPa | 0 mm | - | - | - |
| 1777609763 | 8.33° C | 66% | 1011.6 hPa | 0 mm | - | - | - |
| 1777609162 | 8.89° C | 65% | 1011.6 hPa | 0 mm | - | - | - |
| 1777608562 | 8.89° C | 63% | 1011.6 hPa | 0 mm | - | - | - |
| 1777607962 | 8.89° C | 61% | 1011.6 hPa | 0 mm | - | - | - |
| 1777607362 | 9.44° C | 60% | 1011.3 hPa | 0 mm | - | - | - |
| 1777606762 | 9.44° C | 59% | 1011.3 hPa | 0 mm | - | - | - |
| 1777606161 | 9.44° C | 59% | 1011.3 hPa | 0 mm | - | - | - |
| 1777605561 | 10° C | 58% | 1011.3 hPa | 0 mm | - | - | - |
| 1777604961 | 10° C | 58% | 1011 hPa | 0 mm | - | - | - |
| 1777604362 | 10° C | 59% | 1011.3 hPa | 0 mm | - | - | - |
| 1777603761 | 10° C | 59% | 1011 hPa | 0 mm | - | - | - |
| 1777603161 | 10° C | 60% | 1011 hPa | 0 mm | - | - | - |
| 1777602560 | 10° C | 60% | 1011 hPa | 0 mm | - | - | - |
| 1777601960 | 10° C | 62% | 1011 hPa | 0 mm | - | - | - |
* Rain latest hour (hover to see other rain measurements)
** Current wind speed in m/s (hover to see current wind gust speed)